Regional Weather Roundup
Issued by NWS

Home | Current Version | Previous Version | Text Only | Print | Product List | Glossary Off
Versions: 1 2 3 4 5 6 7 8 9 10 11 12 13 14 15 16 17 18 19 20 21 22 23 24 25 26 27 28 29 30 31 32 33 34 35 36 37 38 39 40 41 42 43 44 45 46 47 48 49 50

000
ASUS43 KLMK 051902
RWRKY
KENTUCKY REGIONAL WEATHER ROUNDUP
NATIONAL WEATHER SERVICE LOUISVILLE KY
200 PM EST THU MAR 05 2015

NOTE "FAIR" INDICATES FEW OR NO CLOUDS BELOW 12,000 FEET
WITH NO SIGNIFICANT WEATHER AND/OR OBSTRUCTIONS TO VISIBILITY.

KYZ001>023-026-027-061>063-070>075-052000-
WESTERN AND SOUTH CENTRAL KENTUCKY

CITY           SKY/WX    TMP DP  RH WIND       PRES   REMARKS
PADUCAH        SUNNY     27  10  49 N15       30.51R WCI  15
HENDERSON      SUNNY     23   7  50 NW16      30.50S WCI  10
OWENSBORO      NOT AVBL
HOPKINSVILLE   NOT AVBL
BOWLING GREEN  CLOUDY    24  16  71 NW9       30.42F WCI  14
GLASGOW        NOT AVBL
$$

KYZ024-025-028>034-038-045-046-053-052000-
NORTH CENTRAL KENTUCKY

CITY           SKY/WX    TMP DP  RH WIND       PRES   REMARKS
LOUISVILLE/SDF NOT AVBL
LOUISVILLE/LOU CLOUDY    25  12  58 N8        30.42S WCI  16
FORT KNOX      CLOUDY    23  11  58 NW12      30.38S WCI  12
$$

KYZ035>037-039>044-047>052-055>060-089>105-052000-
NORTHEAST KENTUCKY

CITY           SKY/WX    TMP DP  RH WIND       PRES   REMARKS
LEXINGTON      FLURRIES  20  12  71 N10       30.35S WCI   9
COVINGTON      PTSUNNY   23   7  50 N9        30.37R WCI  13
FRANKFORT      CLOUDY    21  13  71 NW7       30.37F WCI  12
$$

KYZ054-064>069-076>088-106>120-052000-
SOUTHEAST KENTUCKY

CITY           SKY/WX    TMP DP  RH WIND       PRES   REMARKS
JACKSON        LGT SNOW  20  16  84 VRB6      30.25F FOG     WCI  12
LONDON         LGT SNOW  22  14  71 N13       30.27R WCI  10
SOMERSET       NOT AVBL
MIDDLESBORO    NOT AVBL
MONTICELLO     LGT SNOW  23  18  80 N10       30.36R WCI  12
$$




USA.gov is the U.S. government's official web portal to all federal, state and local government web resources and services.